Weather History for Twin Falls, ID

Change the Weather History Date:

Tuesday, August 6, 2013

  Actual Average Record
Temperature  
Mean Temperature 81 °F -  
Max Temperature 95 °F 90 °F 100 °F (1998)
Min Temperature 66 °F 58 °F 49 °F (2007)
Degree Days  
Heating Degree Days 0 0  
Month to date heating degree days 0 0  
Since 1 June heating degree days 55 93  
Since 1 July heating degree days 0 6  
Cooling Degree Days 16 9  
Month to date cooling degree days 59 59  
Year to date cooling degree days 715 445  
Since 1 June cooling degree days 690 423  
Growing Degree Days 30 (Base 50)    
Moisture  
Dew Point 36 °F    
Average Humidity 22    
Maximum Humidity 32    
Minimum Humidity 11    
Precipitation  
Precipitation 0.00 in 0.01 in 2.00 in (2014)
Month to date precipitation 0.00 0.07  
Year to date precipitation 3.19 6.63  
Sea Level Pressure  
Sea Level Pressure 29.83 in    
Wind  
Wind Speed 11 mph (WSW)    
Max Wind Speed 16 mph    
Max Gust Speed 20 mph    
Visibility 10 miles    
Events      
T = Trace of Precipitation, MM = Missing Value Source: NWS Daily Summary

Daily Weather History Graph

Daily Weather History Graph

Search for Another Location

Airport:

Trip Planner

Search our weather history database for the weather conditions in past years. The results will help you decide how hot, cold, wet, or windy it might be!

Date:

Astronomy

Aug. 06, 2013 Rise Set
Actual Time 6:35 AM MDT 8:51 PM MDT
Civil Twilight 6:04 AM MDT 9:22 PM MDT
Nautical Twilight 5:25 AM MDT 10:00 PM MDT
Astronomical Twilight 4:42 AM MDT 10:43 PM MDT
Moon 6:32 AM MDT (8/6) 8:26 PM MDT (8/6)
Length of Visible Light 15h 17m
Length of Day
14h 15m
Waning Crescent, 0% of the Moon is Illuminated
Aug 6
Waning Crescent
Aug 6
New
Aug 14
First Quarter
Aug 20
Full
Aug 28
Last Quarter

Hourly Weather History & Observations

Time (MDT) Temp. Dew Point Humidity Pressure Visibility Wind Dir Wind Speed Gust Speed Precip Events Conditions
12:53 AM 71.1 °F 30.9 °F 23% 29.78 in 10.0 mi South 11.5 mph - N/A   Clear
1:53 AM 71.1 °F 30.9 °F 23% 29.78 in 10.0 mi South 11.5 mph - N/A   Clear
2:53 AM 70.0 °F 30.9 °F 24% 29.78 in 10.0 mi South 11.5 mph - N/A   Clear
3:53 AM 73.0 °F 30.0 °F 20% 29.79 in 10.0 mi SSW 12.7 mph - N/A   Clear
4:53 AM 69.1 °F 32.0 °F 25% 29.80 in 10.0 mi SSW 12.7 mph - N/A   Clear
5:53 AM 66.9 °F 35.1 °F 31% 29.83 in 10.0 mi SSW 10.4 mph - N/A   Clear
6:53 AM 68.0 °F 37.0 °F 32% 29.86 in 10.0 mi SSW 12.7 mph - N/A   Clear
7:53 AM 71.1 °F 37.9 °F 30% 29.87 in 10.0 mi SSW 11.5 mph - N/A   Clear
8:53 AM 75.9 °F 39.0 °F 26% 29.89 in 10.0 mi SW 10.4 mph - N/A   Clear
9:53 AM 80.1 °F 39.9 °F 24% 29.90 in 10.0 mi West 12.7 mph - N/A   Clear
10:53 AM 84.0 °F 44.1 °F 25% 29.90 in 10.0 mi West 11.5 mph - N/A   Clear
11:53 AM 84.9 °F 44.1 °F 24% 29.90 in 10.0 mi WNW 11.5 mph - N/A   Clear
12:53 PM 88.0 °F 45.0 °F 22% 29.88 in 10.0 mi WNW 9.2 mph - N/A   Clear
1:53 PM 89.1 °F 43.0 °F 20% 29.88 in 10.0 mi NW 8.1 mph - N/A   Clear
2:53 PM 91.9 °F 39.0 °F 16% 29.86 in 10.0 mi NW 10.4 mph - N/A   Clear
3:53 PM 91.9 °F 37.0 °F 15% 29.83 in 10.0 mi NNW 6.9 mph - N/A   Clear
4:53 PM 91.9 °F 37.0 °F 15% 29.82 in 10.0 mi WNW 3.5 mph - N/A   Clear
5:53 PM 91.9 °F 30.9 °F 11% 29.81 in 10.0 mi West 10.4 mph - N/A   Clear
6:53 PM 93.0 °F 32.0 °F 12% 29.80 in 10.0 mi West 10.4 mph - N/A   Clear
7:53 PM 89.1 °F 42.1 °F 19% 29.79 in 10.0 mi West 9.2 mph - N/A   Clear
8:53 PM 78.1 °F 39.9 °F 25% 29.80 in 9.0 mi WSW 9.2 mph - N/A   Clear
9:53 PM 77.0 °F 34.0 °F 21% 29.81 in 10.0 mi WSW 10.4 mph - N/A   Clear
10:53 PM 78.1 °F 26.1 °F 15% 29.81 in 10.0 mi WSW 13.8 mph - N/A   Clear
11:53 PM 71.1 °F 28.9 °F 21% 29.81 in 10.0 mi South 15.0 mph - N/A   Clear